Dewpoint
50 50 51 51 51 51 52 52 52 51 51 51 51 53 53 53 52 40 24 34 39 55 54 38 41 36 29 24 23 21 19 15 12 12 14 19 18 21 26 26 27 37 39 47 54
50 50 50 50 50 51 51 51 52 51 51 51 52 52 53 53 44 32 47 59 58 55 37 32 35 32 25 22 20 20 16 14 13 12 14 17 18 19 22 22 26 33 41 49 52
49 50 50 50 50 50 52 52 52 51 51 52 52 52 52 50 35 22 54 60 61 56 35 28 32 29 24 20 17 19 16 14 14 14 13 16 17 19 22 23 25 33 31 40 50
50 50 50 50 50 50 52 52 52 51 51 51 51 51 52 44 21 20 53 59 57 46 37 34 29 28 25 19 15 16 17 15 14 14 14 17 18 20 24 27 28 37 40 41 50
50 50 51 51 51 51 52 52 53 52 52 51 51 51 44 33 32 27 50 48 47 41 36 30 27 26 24 17 14 17 16 15 14 14 15 18 19 22 23 25 30 39 45 46 50
51 51 51 51 51 51 52 52 52 52 52 51 51 50 41 28 31 28 24 18 17 36 36 30 27 26 22 19 17 17 16 17 13 16 17 17 19 20 24 27 30 41 44 47 49
50 50 51 51 50 51 52 52 52 52 52 51 51 46 37 26 25 23 26 21 16 11 26 34 30 26 26 23 20 17 15 16 15 15 14 19 18 21 20 26 33 41 43 46 51
49 50 51 51 51 52 52 52 51 51 52 51 51 45 34 25 27 30 29 27 24 19 17 32 33 33 28 23 20 17 18 15 16 16 17 18 18 18 19 31 33 37 41 45 50
49 50 51 51 51 51 51 51 51 52 50 51 48 43 29 36 27 26 26 25 29 25 23 21 30 30 30 25 21 22 15 16 16 16 16 19 20 18 28 30 31 33 40 43 46
48 48 50 50 51 51 51 50 48 49 48 43 40 38 34 21 19 32 38 34 34 36 25 21 28 28 25 23 17 17 17 17 15 16 17 18 23 21 27 30 32 32 34 41 44
47 48 49 50 50 50 48 39 32 37 34 27 26 32 25 30 31 31 36 39 33 31 31 18 22 25 24 25 23 19 17 16 17 15 17 18 17 20 20 23 28 32 34 39 44
46 47 48 48 50 50 47 36 37 39 36 32 31 31 31 29 26 29 36 32 34 33 31 25 20 21 23 23 22 22 18 17 17 14 18 16 12 16 18 18 23 26 32 37 41
45 47 48 49 50 47 39 39 39 41 33 28 28 29 30 31 26 26 29 31 33 35 34 27 22 26 22 23 21 22 21 19 17 16 18 18 13 12 15 19 21 25 27 31 39
45 46 49 49 45 41 37 39 41 43 32 20 23 28 32 30 25 24 28 32 34 34 36 29 25 26 25 24 25 21 21 19 17 17 16 18 12 14 14 17 21 24 27 30 34
46 46 48 48 41 37 38 42 43 42 18 12 24 30 29 25 22 24 22 30 28 29 27 30 22 18 24 25 25 24 22 20 19 19 20 20 13 14 16 17 19 22 23 28 34
44 46 47 40 43 42 40 44 43 35 16 14 18 20 21 21 24 23 23 23 27 31 28 24 24 25 22 19 23 23 22 22 22 22 22 22 17 14 16 18 21 17 21 23 34
44 46 43 39 36 43 44 41 30 18 10 14 17 18 17 17 20 22 26 24 17 21 25 27 24 25 26 20 23 20 22 20 20 21 21 21 19 20 19 20 22 23 20 26 31
44 46 41 37 39 44 43 33 21 8 8 16 19 15 12 16 21 23 24 23 22 21 23 20 20 25 25 25 19 21 21 21 20 22 18 20 18 19 22 22 22 22 24 26 34
44 37 37 40 42 41 39 27 15 10 12 19 12 5 7 16 19 21 23 24 22 23 19 18 12 18 20 27 25 21 21 22 21 28 26 21 22 23 24 21 22 23 23 25 27
35 36 35 40 44 43 36 25 17 18 23 18 11 10 13 16 18 20 23 27 26 26 24 21 17 17 22 25 28 25 23 21 23 21 21 21 25 21 21 21 22 23 27 28 29
35 34 35 40 44 40 32 25 20 18 23 21 16 17 17 19 19 19 30 29 28 26 31 23 23 20 22 23 24 26 24 27 23 22 22 22 21 25 23 26 26 28 28 30 32
34 32 38 41 37 34 29 26 27 20 21 22 23 23 23 23 21 19 19 25 29 28 35 26 23 20 29 22 24 26 26 26 26 27 25 28 23 25 30 28 27 27 28 31 32
33 31 42 44 31 30 29 25 23 22 20 19 19 21 21 22 20 21 19 23 25 27 32 34 22 21 22 28 23 23 26 28 28 29 30 31 24 26 26 26 27 28 29 31 32
36 33 30 40 35 30 25 26 22 23 22 21 19 19 20 22 23 22 23 21 23 23 37 36 34 22 15 19 19 22 23 25 24 27 27 28 28 26 25 24 26 31 32 31 32
35 32 30 30 30 30 28 28 21 20 23 21 21 21 21 21 20 22 23 23 23 29 26 30 35 36 26 27 27 19 21 21 24 26 26 27 24 24 24 27 29 31 33 32 32
34 30 30 28 30 26 27 28 23 24 21 21 24 21 19 19 20 22 23 22 23 23 26 29 29 37 30 28 27 26 26 24 24 24 25 24 24 26 28 23 25 32 34 35 37
34 34 36 28 26 28 28 24 21 24 25 25 24 22 22 24 28 31 31 30 32 29 27 27 25 31 29 26 24 25 26 24 25 24 25 24 27 30 24 23 28 32 38 39 39
Lifted_Index
15 15 15 15 15 15 15 15 15 15 15 15 14 14 13 13 11 10 10 9 8 8 8 7 6 6 7 7 6 6 5 4 3 2 2 4 4 4 4 4 3 2 0 -1 -2
15 15 15 15 15 15 15 15 15 15 15 15 14 14 13 12 11 9 8 7 6 7 7 7 6 6 6 7 6 6 5 4 3 3 3 3 4 4 4 4 3 2 1 -1 -1
15 15 15 15 15 15 15 14 14 15 14 14 14 13 13 11 10 8 7 5 4 5 6 6 5 6 6 6 6 6 5 4 3 4 4 4 4 4 4 4 3 2 1 -0 -1
14 14 14 14 14 14 14 14 14 14 13 13 13 13 12 10 9 9 8 5 3 4 5 5 5 5 5 6 6 6 5 4 4 4 4 4 4 4 4 4 3 2 1 -0 -1
14 13 13 13 13 13 13 13 13 13 12 12 12 12 11 9 8 9 9 7 5 4 4 4 4 5 5 5 5 5 5 4 4 5 5 5 4 4 4 4 2 1 -0 -1 -2
12 12 13 13 13 13 13 13 12 12 11 11 11 11 10 9 9 9 10 10 8 6 5 4 4 4 5 5 5 5 5 5 4 5 5 5 5 4 4 4 2 0 -1 -1 -2
12 12 12 12 12 12 12 12 12 11 11 10 10 10 10 9 9 9 10 10 10 8 6 5 4 4 4 5 5 5 5 5 4 4 5 4 4 4 4 3 2 -0 -1 -1 -2
12 12 12 12 12 11 11 11 11 11 10 9 9 9 9 9 9 9 9 9 9 8 8 6 5 4 4 5 5 5 5 4 4 4 4 4 4 3 3 3 1 0 -1 -1 -2
12 12 11 11 11 11 11 10 10 10 9 9 8 8 9 9 9 8 8 8 7 7 8 7 5 5 5 5 4 4 4 3 3 3 3 3 3 3 3 2 2 1 -0 -1 -2
12 12 11 11 10 10 10 9 9 8 8 8 8 8 8 8 8 7 6 6 6 6 7 7 6 5 4 4 4 3 2 2 1 2 3 3 2 2 2 2 2 1 0 -1 -1
12 12 11 10 10 10 9 8 8 8 8 8 8 8 8 8 7 6 5 5 5 6 6 7 6 5 4 4 3 2 1 1 1 1 3 3 3 2 2 2 2 1 1 -1 -1
12 11 11 10 10 9 8 8 8 8 8 8 8 8 8 8 8 6 6 5 5 5 6 6 6 5 4 3 3 2 2 1 1 1 3 3 3 3 3 3 2 2 1 0 -1
12 11 11 10 9 8 8 7 8 8 7 7 8 7 8 8 8 7 6 6 5 5 5 6 6 5 4 4 3 3 2 2 2 2 3 3 3 3 3 3 3 2 2 1 0
11 11 10 9 9 8 7 7 7 6 6 6 6 6 7 8 8 8 7 6 5 5 5 5 5 5 5 4 3 3 2 2 2 2 2 2 3 3 3 2 2 3 3 2 1
11 10 9 9 8 7 7 7 6 5 4 5 6 6 6 7 7 7 7 6 6 5 5 5 5 5 5 4 4 3 3 3 3 3 2 2 3 3 2 1 2 2 3 2 2
10 10 9 9 8 7 7 6 5 4 3 4 5 6 6 6 6 6 7 7 6 6 5 5 5 6 5 5 5 4 3 3 2 2 2 2 2 2 1 1 1 2 3 3 2
9 9 9 9 8 7 6 5 4 3 4 4 5 5 5 5 5 5 5 6 6 5 5 5 5 5 5 5 5 4 3 2 1 1 1 2 1 1 1 1 1 2 3 3 2
9 9 9 8 7 7 6 5 4 4 5 5 5 5 5 4 4 4 4 4 5 5 4 4 4 5 5 5 5 4 3 2 1 0 1 1 1 1 0 1 1 2 2 2 2
8 8 8 7 7 6 5 5 4 4 5 5 5 5 5 4 3 3 3 3 4 4 4 3 3 4 4 4 4 4 3 2 1 0 0 0 0 0 1 1 1 2 2 2 2
8 8 7 6 6 6 5 5 5 5 5 5 5 5 4 4 3 3 2 2 3 3 3 3 3 3 3 3 3 3 3 2 1 0 -0 -0 -0 -0 0 0 0 1 1 2 2
7 7 6 6 5 5 5 5 5 5 5 5 5 4 4 4 3 3 2 2 2 2 2 2 2 2 2 3 3 2 2 1 1 0 -0 -0 -0 -0 0 0 -0 0 1 1 1
6 6 5 5 5 5 5 5 5 5 5 5 5 4 4 4 4 4 3 3 3 2 1 2 2 2 2 2 2 2 1 1 0 0 0 -0 -0 0 1 1 0 0 0 0 0
5 5 4 4 4 5 5 5 5 5 4 4 4 4 4 4 4 4 4 4 4 2 2 2 2 2 1 1 1 1 0 0 0 0 -0 -0 -0 0 1 1 1 1 0 -0 -0
4 4 4 4 4 4 4 4 4 4 4 4 3 3 3 3 4 4 4 4 4 3 3 2 1 1 1 0 0 -0 -0 -0 0 0 -0 -0 -0 0 1 1 2 1 0 -0 -0
4 4 4 4 4 4 4 4 4 3 3 3 3 3 3 3 3 4 4 4 4 3 3 2 1 1 1 0 -0 -1 -1 -0 -0 -0 -0 -1 -0 -0 0 1 2 1 1 0 -0
3 4 3 3 3 3 4 4 3 3 3 2 3 3 3 3 3 3 3 3 3 3 3 3 2 1 1 0 -0 -1 -1 -1 -1 -1 -1 -1 -1 -1 0 1 1 1 1 0 0
3 3 3 3 3 3 3 3 3 3 2 2 2 2 2 2 2 3 3 3 4 4 3 3 3 2 1 1 0 -0 -1 -1 -1 -1 -1 -1 -1 -1 0 1 1 1 0 0 0